P/2010 A2 ( LINEAR )

Japanese version
Home page
Updated on October 3, 2010

---------------------------------------------------------------------

* Profile

Discovery Date January 6, 2010
Magnitude 19.9 mag
Discoverer Lincoln Laboratory Near-Earth Asteroid Research project

* Pictures

* Orbital Elements

Epoch 2009 Nov. 25.0 TT = JDT 2455160.5
T 2009 Dec. 4.67084 TT                                  MPC
q   2.0058793            (2000.0)            P               Q
n   0.28430088     Peri.  133.22104     -0.06300038     -0.99629454
a   2.2906070      Node   320.27856     +0.88705057     -0.02901437
e   0.1243023      Incl.    5.25682     +0.45735353     -0.08096519
P   3.47

* Magnitudes Graph

        m1 = 2.5 + 5 log d + 50 log r

        Nuclear magnitude:
        H = 21.3  G = 0.15

---------------------------------------------------------------------

The orbital elements are published on M.P.E.C. 2010-F16.
The magnitudes graphs are made with Comet for Windows.

---------------------------------------------------------------------

Copyright(C) Seiichi Yoshida (comet@aerith.net). All rights reserved.